Location: Brusselsch Zeekanaal
(50.8667°N, 4.3667°E)
Time: 23:12:17
(UTC+00:00)

Meteor 2-21 - Pass Details

Date: 08 November 2025
Orbit: 933 x 966 km, 82.5° (Epoch: 04 December)

Event Time Altitude Azimuth Distance (km) Brightness Sun altitude
Rises 04:51:30 0° 202° (SSW) 3,609 7.3 -18.3°
Reaches altitude 10° 04:54:03 10° 206° (SSW) 2,663 6.6 -17.9°
Maximum altitude 05:00:01 57° 285° (WNW) 1,100 4.4 -16.9°
Drops below altitude 10° 05:06:01 10° 4° (N) 2,661 6.8 -16.0°
Sets 05:08:33 0° 9° (N) 3,607 7.5 -15.6°
